La Vergne, TN

6:31 PM CDT on September 29, 2016 (GMT -0500)
Smyrna

Weather History for KMQY - August, 2012

Change the Weather History Date:

Friday, August 10, 2012

  Actual Average Record
Temperature  
Mean Temperature 77 °F -  
Max Temperature 86 °F 84 °F 104 °F (2007)
Min Temperature 66 °F 67 °F 41 °F (2001)
Cooling Degree Days 12    
Growing Degree Days 27 (Base 50)    
Moisture  
Dew Point 70 °F    
Average Humidity 76    
Maximum Humidity 100    
Minimum Humidity 48    
Precipitation  
Precipitation 0.01 in - - ()
Sea Level Pressure  
Sea Level Pressure 29.84 in    
Wind  
Wind Speed 7 mph (North)    
Max Wind Speed 14 mph    
Max Gust Speed -    
Visibility 10 miles    
Events Rain    
Averages and records for this station are not official NWS values.
T = Trace of Precipitation, MM = Missing Value Source: NWS Daily Summary

Daily Weather History Graph

Daily Weather History Graph

Search for Another Location

Airport or City:

Trip Planner

Search our weather history database for the weather conditions in past years. The results will help you decide how hot, cold, wet, or windy it might be!

Date:

Astronomy

Aug. 10, 2012 Rise Set
Actual Time 6:00 AM CDT 7:41 PM CDT
Civil Twilight 5:33 AM CDT 8:08 PM CDT
Nautical Twilight 5:00 AM CDT 8:41 PM CDT
Astronomical Twilight 4:24 AM CDT 9:16 PM CDT
Moon No Moon Rise 2:18 PM CDT (8/10)
Length of Visible Light 14h 35m
Length of Day
13h 40m
Last Quarter, 41% of the Moon is Illuminated
Aug 10
Last Quarter
Aug 17
New
Aug 24
First Quarter
Aug 31
Full
Sep 8
Last Quarter

Hourly Weather History & Observations

Time (CDT) Temp. Heat Index Dew Point Humidity Pressure Visibility Wind Dir Wind Speed Gust Speed Precip Events Conditions
12:56 AM 72.9 °F - 70.9 °F 93% 29.79 in 10.0 mi South 6.9 mph - N/A   Partly Cloudy
1:56 AM 72.9 °F - 70.9 °F 93% 29.78 in 10.0 mi South 5.8 mph - N/A   Clear
3:56 AM 72.9 °F - 70.9 °F 93% 29.78 in 10.0 mi Variable 5.8 mph - N/A   Clear
4:56 AM 72.9 °F - 70.9 °F 93% 29.79 in 10.0 mi Calm Calm - N/A   Partly Cloudy
5:56 AM 72.9 °F - 72.0 °F 97% 29.80 in 10.0 mi SSE 3.5 mph - N/A   Mostly Cloudy
6:56 AM 72.9 °F - 72.0 °F 97% 29.82 in 6.0 mi SSW 3.5 mph - 0.01 in Rain Light Rain
7:17 AM 73.4 °F - 73.4 °F 100% 29.84 in 10.0 mi South 4.6 mph - 0.00 in   Mostly Cloudy
7:48 AM 75.2 °F - 73.4 °F 94% 29.85 in 10.0 mi SW 3.5 mph - 0.00 in   Mostly Cloudy
7:56 AM 74.8 °F - 72.9 °F 94% 29.83 in 10.0 mi Variable 3.5 mph - 0.00 in   Mostly Cloudy
8:45 AM 78.8 °F - 73.4 °F 83% 29.85 in 10.0 mi Variable 3.5 mph - N/A   Overcast
8:56 AM 77.9 °F - 72.9 °F 84% 29.82 in 10.0 mi WNW 3.5 mph - N/A   Overcast
9:56 AM 79.9 °F - 72.9 °F 79% 29.83 in 10.0 mi North 4.6 mph - N/A   Overcast
10:21 AM 82.4 °F 88.2 °F 73.4 °F 74% 29.85 in 10.0 mi NNW 5.8 mph - N/A   Mostly Cloudy
10:56 AM 79.9 °F - 72.9 °F 79% 29.83 in 10.0 mi North 6.9 mph - N/A   Overcast
11:12 AM 82.4 °F 88.2 °F 73.4 °F 74% 29.86 in 10.0 mi North 3.5 mph - N/A   Mostly Cloudy
11:40 AM 82.4 °F 88.2 °F 73.4 °F 74% 29.85 in 10.0 mi North 12.7 mph - N/A   Mostly Cloudy
11:48 AM 82.4 °F 87.2 °F 71.6 °F 70% 29.85 in 10.0 mi North 10.4 mph - N/A   Mostly Cloudy
11:56 AM 81.9 °F 86.6 °F 72.0 °F 72% 29.82 in 10.0 mi North 12.7 mph - N/A   Mostly Cloudy
12:38 PM 84.2 °F 90.9 °F 73.4 °F 70% 29.84 in 10.0 mi NNW 10.4 mph - N/A   Mostly Cloudy
12:48 PM 84.2 °F 89.6 °F 71.6 °F 66% 29.84 in 10.0 mi NNW 8.1 mph - N/A   Mostly Cloudy
12:56 PM 83.8 °F 87.5 °F 68.9 °F 61% 29.82 in 10.0 mi North 10.4 mph - N/A   Mostly Cloudy
1:56 PM 84.9 °F 90.1 °F 70.9 °F 63% 29.81 in 10.0 mi North 10.4 mph - N/A   Scattered Clouds
2:56 PM 86.0 °F 90.7 °F 70.0 °F 59% 29.82 in 10.0 mi North 11.5 mph - N/A   Partly Cloudy
3:56 PM 84.9 °F 88.8 °F 68.9 °F 59% 29.81 in 10.0 mi North 13.8 mph - N/A   Scattered Clouds
4:56 PM 84.9 °F 85.9 °F 63.0 °F 48% 29.82 in 10.0 mi North 12.7 mph - N/A   Clear
5:56 PM 82.9 °F 84.0 °F 63.0 °F 51% 29.82 in 10.0 mi North 10.4 mph - N/A   Clear
6:56 PM 81.0 °F 82.2 °F 63.0 °F 54% 29.85 in 10.0 mi North 9.2 mph - N/A   Clear
7:56 PM 77.0 °F - 61.9 °F 59% 29.87 in 10.0 mi North 13.8 mph - N/A   Clear
8:56 PM 74.8 °F - 61.9 °F 64% 29.88 in 10.0 mi North 9.2 mph - N/A   Clear
9:56 PM 72.0 °F - 61.9 °F 70% 29.90 in 10.0 mi North 6.9 mph - N/A   Clear
10:56 PM 68.9 °F - 61.9 °F 78% 29.91 in 10.0 mi North 9.2 mph - N/A   Clear
11:56 PM 66.9 °F - 61.0 °F 81% 29.92 in 10.0 mi North 6.9 mph - N/A   Clear